Location: ??
(35.5386°N, 139.7291°E)
Time: 15:32:48
(UTC+00:00)

Daily predictions for brighter satellites

Satellite Brightness Start Highest point End
(mag) Time Altitude Azimuth Time Altitude Azimuth Time Altitude Azimuth
Landsat 4 3.6 12:07:12 62° ENE 12:07:12 62° ENE 12:10:26 10° N
Landsat 5 3.7 12:03:09 10° NNE 12:06:58 48° E 12:06:58 48° E
Aureole 3 4.0 12:07:35 39° ENE 12:07:35 39° ENE 12:11:19 10° NNE
Okean 3 3.8 12:09:15 44° E 12:09:15 44° E 12:12:59 10° NNE
SL-14 R/B 3.1 12:08:28 63° SSW 12:09:02 83° W 12:12:50 10° N
Terra 1.8 12:08:23 44° S 12:09:54 80° WSW 12:14:37 10° NNW
Cosmos 1980 Rocket 4.4 12:06:18 10° WNW 12:10:02 18° W 12:13:43 10° SW
Meteor 1-22 Rocket 4.3 12:04:57 10° N 12:10:41 82° W 12:13:19 35° S
Cosmos 2322 Rocket 2.5 12:06:46 10° NNW 12:12:22 56° ENE 12:13:58 41° ESE
S3M 4.1 12:08:39 10° N 12:14:59 74° W 12:18:10 31° S
SJ 16-02 1.1 12:20:13 72° ESE 12:20:18 72° ESE 12:24:37 10° NNE
Meteor 2-10 Rocket 3.5 12:15:03 10° N 12:20:35 88° W 12:22:05 49° S
Cosmos 1707 Rocket 3.6 12:20:19 52° SSW 12:21:21 77° W 12:25:48 10° N
Cosmos 1346 Rocket 3.0 12:17:45 10° N 12:21:12 57° NE 12:21:12 57° NE
Cosmos 1655 Rocket 4.2 12:18:52 24° SSW 12:22:55 72° W 12:29:19 10° N
Cosmos 2278 4.2 12:19:01 10° NNW 12:24:32 52° WSW 12:26:33 35° SSW
Meteor 1-21 4.3 12:25:26 36° SSW 12:27:53 81° W 12:33:44 10° N
RESURS DK-1 2.2 12:25:11 10° NNW 12:29:08 83° NW 12:29:08 83° NW
Ariane Rocket 3.2 12:28:14 46° SSW 12:29:35 65° WSW 12:34:39 10° NNW
Cosmos 1455 4.3 12:31:32 10° NNE 12:32:42 16° NE 12:32:42 16° NE
Cosmos 2219 Rocket 3.1 12:32:16 10° N 12:37:25 34° ENE 12:38:24 32° E
Tiangong 0.5 12:34:51 10° W 12:35:39 15° W 12:35:39 15° W
ARIANE 5 R/B 4.4 12:38:31 20° ENE 12:38:31 20° ENE 12:41:18 10° NNE
Cosmos 1244 Rocket 4.4 12:39:31 54° SSE 12:40:55 72° E 12:47:11 10° N
Cosmos 1758 3.9 12:37:56 10° NNW 12:41:36 49° W 12:41:36 49° W
Nadezhda 2 Rocket 4.5 12:41:15 54° SSE 12:42:41 71° E 12:49:05 10° N
Cosmos 1733 Rocket 3.3 12:43:31 10° NNW 12:47:53 62° W 12:47:54 62° W
Okean 1-7 3.2 12:50:45 65° NNE 12:50:45 65° NNE 12:54:28 10° N
SPOT 3 Rocket 4.4 12:55:15 35° SW 12:56:15 38° W 13:01:04 10° NNW
Cosmos 839 Rocket 4.3 12:50:52 10° NNW 12:57:19 54° ENE 12:58:31 47° E
COSMOS 2455 3.6 13:00:07 36° E 13:00:07 36° E 13:04:26 10° NE
SeaSat 1 3.7 13:00:33 29° WSW 13:00:56 29° WSW 13:05:12 10° NW
GP-B 4.1 12:56:55 10° NNE 12:59:58 37° NE 12:59:58 37° NE
Cosmos 1908 Rocket 4.4 12:57:51 10° N 13:01:03 42° NE 13:01:03 42° NE
Cosmos 2360 Rocket 2.1 12:56:40 10° NNW 13:02:19 72° WSW 13:02:44 68° SW
SL-08 R/B 4.3 13:08:01 68° SSW 13:08:52 85° W 13:15:00 10° N
Okean 2 4.4 13:10:02 43° NW 13:10:02 43° NW 13:13:05 10° N
CZ-4C R/B 3.5 13:13:17 21° ENE 13:13:17 21° ENE 13:15:15 10° NE
DNEPR-1 R/B 4.4 13:06:44 10° NNW 13:12:54 57° NE 13:13:08 57° ENE
SL-16 R/B 3.7 13:08:55 10° NW 13:13:25 25° WSW 13:14:22 24° WSW
CZ-3 Stage 3 4.0 12:31:27 10° W 13:14:15 70° SSW 13:18:28 42° SE
Cosmos 1814 Rocket 4.1 13:11:17 10° NNW 13:16:24 72° W 13:16:24 72° W
Cosmos 2333 Rocket 2.4 13:11:18 10° NNW 13:16:57 59° WSW 13:17:08 58° WSW
Cosmos 1315 Rocket 4.4 13:21:13 32° NW 13:21:13 32° NW 13:24:13 10° N
Cosmos 1953 3.9 13:23:06 10° NNW 13:25:18 32° NNW 13:25:18 32° NNW
Atlas Centaur 2 3.6 13:21:16 10° W 13:27:32 38° SW 13:27:32 38° SW
ALOS 2 4.5 13:30:06 22° NE 13:30:06 22° NE 13:32:38 10° NNE
ATLAS 2AS CENTAUR R/B 2.7 13:27:41 10° NW 13:34:17 62° WSW 13:34:31 61° SW
Cosmos 2237 Rocket 4.0 13:33:10 10° N 13:37:10 19° ENE 13:38:16 18° ENE
Cosmos 2227 Rocket 4.1 13:39:35 18° ENE 13:39:35 18° ENE 13:41:48 10° NE
Cosmos 2322 3.9 13:34:44 10° NNW 13:40:02 65° NE 13:40:02 65° NE
BlueWalker 3 4.2 13:40:52 23° NNW 13:40:52 23° NNW 13:43:34 10° NNE
USA 281 3.0 13:40:01 76° SE 13:40:34 84° ENE 13:47:10 10° NNW
Cosmos 1745 Rocket 4.2 13:51:51 61° WSW 13:52:18 63° W 13:58:37 10° N
Cosmos 2322 Rocket 4.2 13:52:18 10° WNW 13:55:46 17° W 13:55:46 17° W
H-2A R/B 3.9 13:58:47 37° NNW 13:58:47 37° NNW 14:01:23 10° NNW
Cosmos 2297 Rocket 2.6 13:58:28 54° NE 13:58:28 54° NE 14:02:54 10° NNE
Cosmos 371 Rocket 4.2 14:03:11 45° N 14:03:11 45° N 14:06:36 10° NNE
Nadezhda 1 Rocket 4.3 14:01:27 10° NNW 14:07:29 56° W 14:07:29 56° W
Meteor 2-5 Rocket 3.9 14:14:02 73° N 14:14:02 73° N 14:19:19 10° N
Cosmos 2181 Rocket 4.4 14:09:43 10° N 14:15:25 49° ENE 14:15:25 49° ENE
Cosmos 2219 Rocket 3.7 14:16:24 10° NW 14:20:06 27° W 14:20:06 27° W
COSMOS 2428 3.2 14:16:27 10° NNW 14:21:02 55° NW 14:21:02 55° NW
CENTAUR R/B 3.0 14:29:10 43° ENE 14:29:10 43° ENE 14:33:48 10° NE
Cosmos 2263 Rocket 4.0 14:32:08 20° ENE 14:32:08 20° ENE 14:34:45 10° NE
SL-4 R/B 4.2 14:35:31 10° NNW 14:38:30 25° NNE 14:38:30 25° NNE
COSMOS 2455 4.3 14:43:11 26° W 14:44:50 30° NW 14:50:04 10° N
Cosmos 2098 Rocket 4.1 14:39:31 10° N 14:45:40 70° WNW 14:45:40 70° WNW
NOSS 0 Rocket 4.3 14:44:39 10° NNW 14:49:51 55° WNW 14:49:51 55° WNW
Cosmos 1295 Rocket 4.5 14:55:19 73° NE 14:55:19 73° NE 15:00:54 10° N
H-2A R/B 3.7 14:52:52 10° N 14:55:10 31° N 14:55:10 31° N
CZ-4C R/B 3.9 14:58:19 19° WNW 14:59:20 20° NW 15:03:10 10° N
Nadezhda 3 Rocket 4.3 14:57:32 10° N 15:03:40 55° E 15:03:42 55° E
Cosmos 2184 Rocket 4.0 15:06:27 74° WNW 15:06:27 74° WNW 15:12:35 10° N
Meteor 2-11 Rocket 4.5 15:07:25 72° NE 15:07:25 72° NE 15:13:03 10° N
NOSS 3-2 (A) 3.5 15:15:41 56° NE 15:15:41 56° NE 15:20:13 10° NNE
SL-16 R/B 3.3 15:09:26 10° N 15:14:39 36° ENE 15:15:39 33° E
Cosmos 2082 4.2 15:20:18 53° ENE 15:20:18 53° ENE 15:24:56 10° NNE
NOSS 3-2 (C) 4.3 15:22:19 31° E 15:22:19 31° E 15:26:02 10° NE
Cosmos 2227 Rocket 3.0 15:21:22 43° WNW 15:21:22 43° WNW 15:26:36 10° N
IDEFIX/ARIANE 42P 4.5 15:17:46 10° NE 15:21:12 19° E 15:21:12 19° E
Cosmos 2237 Rocket 3.0 15:16:03 10° NNW 15:20:03 42° WNW 15:20:03 42° WNW
Cosmos 967 Rocket 4.4 15:21:42 85° NW 15:21:42 85° NW 15:28:07 10° NNE
Cosmos 2154 Rocket 4.1 15:23:23 67° WNW 15:23:23 67° WNW 15:29:24 10° N
Cosmos 2327 Rocket 4.4 15:27:42 77° ENE 15:27:42 77° ENE 15:33:35 10° N
Cosmos 1538 Rocket 4.5 15:25:01 10° N 15:29:36 57° NE 15:29:36 57° NE
CZ-2D R/B 4.1 15:30:19 10° NE 15:33:45 17° E 15:34:04 17° E
Meteor 1-21 Rocket 4.4 15:39:58 67° NW 15:39:58 67° NW 15:45:16 10° N
SL-8 Rocket 4.2 15:40:15 56° ESE 15:40:36 57° E 15:46:38 10° NNE
Cosmos 372 Rocket 4.3 15:41:33 61° NE 15:41:33 61° NE 15:45:58 10° NNE
Cosmos 2297 Rocket 4.3 15:40:14 14° WNW 15:41:52 15° NW 15:45:06 10° NNW
Cosmos 2219 3.6 15:44:35 51° WNW 15:44:35 51° WNW 15:49:51 10° N
Cosmos 962 Rocket 4.4 15:49:26 83° SSW 15:49:42 87° W 15:56:06 10° N
ADEOS II 4.0 15:54:00 10° NE 15:57:41 19° E 15:58:40 18° ESE
Cosmos 1937 Rocket 3.6 15:59:06 75° NNE 15:59:06 75° NNE 16:03:55 10° NNE
Cosmos 1898 Rocket 3.9 16:03:17 54° NW 16:03:17 54° NW 16:07:54 10° N
Resurs 1-4 Rocket 2.7 16:07:09 10° NNE 16:12:11 44° E 16:12:39 43° ESE
Cosmos 2341 Rocket 3.9 16:12:15 68° WSW 16:12:42 72° W 16:18:55 10° N
Meteor 2-1 Rocket 4.1 16:08:02 10° N 16:13:57 89° E 16:14:25 77° SSE
Cosmos 2263 Rocket 2.9 16:13:47 41° WNW 16:14:03 41° WNW 16:19:19 10° N
CENTAUR R/B 4.1 16:16:16 18° WNW 16:18:46 24° NW 16:24:03 10° N
Cosmos 864 Rocket 4.4 16:21:06 66° SW 16:21:56 76° W 16:28:17 10° N
ALOS 4.4 16:20:32 10° NE 16:23:28 17° E 16:24:53 15° ESE
Cosmos 1544 Rocket 3.8 16:19:15 10° N 16:23:12 66° NNE 16:23:12 66° NNE
Cosmos 2228 3.6 16:20:35 10° N 16:24:40 52° ENE 16:24:40 52° ENE
USA 238 DEB 3.4 16:25:56 59° SSE 16:26:51 68° ESE 16:33:18 10° NE
USA 238 3.4 16:25:58 58° SSE 16:26:55 67° ESE 16:33:20 10° NE
Cosmos 1844 Rocket 3.1 16:32:35 46° SE 16:33:32 52° ESE 16:38:56 10° NNE
H-2A R/B 3.7 16:32:24 10° N 16:35:44 61° N 16:35:44 61° N
Cosmos 1680 Rocket 3.4 16:35:01 10° NNW 16:40:14 83° ENE 16:41:16 58° SSE
Cosmos 2112 Rocket 4.1 16:37:29 10° NNW 16:42:40 72° ENE 16:44:14 45° SE
Cosmos 1818 3.6 16:38:54 10° NNW 16:44:23 77° ENE 16:47:08 30° SE
COSMOS 2441 4.4 16:39:45 10° NNE 16:44:33 68° E 16:45:13 59° SSE
Cosmos 1821 Rocket 3.8 16:43:15 54° S 16:44:47 89° W 16:50:56 10° N
Cosmos 1606 4.3 16:41:56 10° NNW 16:43:38 24° NW 16:43:38 24° NW
Cosmos 2218 Rocket 4.4 16:47:27 43° WSW 16:48:29 47° W 16:54:26 10° N
Cosmos 921 Rocket 4.5 16:53:58 10° N 16:57:47 33° ENE 17:00:54 14° SE
SL-16 R/B 3.4 16:53:49 10° NW 16:57:28 26° W 16:57:28 26° W
SEDSat Delta rocket 4.1 17:00:33 29° SE 17:00:33 29° SE 17:02:52 10° E
MSX 4.0 16:53:45 10° N 16:59:22 58° WNW 17:00:46 45° WSW
Cosmos 1536 Rocket 4.0 17:00:53 47° WNW 17:00:53 47° WNW 17:05:07 10° N
IDEFIX/ARIANE 42P 3.1 16:56:10 10° N 17:01:06 44° WNW 17:01:57 40° W
BREEZE-M DEB (TANK) 4.1 16:57:52 33° SSW 17:01:42 52° SE 17:05:43 10° ENE
Cosmos 1603 4.3 16:58:04 10° NNW 17:03:42 55° ENE 17:09:16 10° SE
CZ-2C R/B 2.5 17:04:40 48° SSW 17:06:04 70° WSW 17:11:25 10° NNW
CZ-2C R/B 3.1 17:03:22 10° N 17:08:39 66° WNW 17:09:56 48° SW
NOSS 3-2 (C) 4.5 17:09:43 22° W 17:11:49 28° NW 17:16:50 10° NNE
ASTEX 1 3.6 17:09:30 28° SSE 17:11:59 66° E 17:16:49 10° N
Cosmos 1943 3.0 17:07:31 10° NNW 17:13:08 75° WSW 17:16:05 29° S
Cosmos 2058 4.4 17:11:36 20° SE 17:13:35 31° E 17:17:11 10° NNE
CZ-2D R/B 2.5 17:08:53 10° N 17:13:59 49° WNW 17:15:21 39° WSW
Cosmos 1726 Rocket 4.4 17:10:14 10° N 17:14:31 47° E 17:17:26 19° SSE
USA 267 3.2 17:10:56 10° NE 17:17:30 90° SSE 17:20:42 33° SW
FENGYUN 3A 3.6 17:13:13 10° N 17:18:35 71° WNW 17:20:33 39° SSW
SL-16 R/B 2.8 17:14:01 10° SSE 17:20:12 70° ENE 17:26:25 10° N
Cosmos 1125 Rocket 3.7 17:19:10 32° S 17:21:33 65° ESE 17:26:47 10° NNE
CZ-2C R/B 4.5 17:18:35 10° NE 17:21:52 19° E 17:25:10 10° SE
Cosmos 1934 Rocket 4.1 17:18:57 25° S 17:22:51 77° E 17:29:14 10° N
Cosmos 2123 Rocket 4.3 17:20:07 10° N 17:26:15 64° E 17:32:24 10° SSE
Cosmos 1867 4.3 17:24:27 30° W 17:26:29 41° NW 17:31:39 10° NNE
Meteor 1-28 Rocket 2.9 17:27:14 46° SSE 17:28:12 85° E 17:31:45 10° N
Cosmos 494 Rocket 3.9 17:26:09 10° NNW 17:31:25 90° ENE 17:36:27 11° SSE
ADEOS II 2.6 17:32:29 10° N 17:37:26 44° WNW 17:39:33 29° WSW
BREEZE-M DEB (TANK) 2.3 17:35:36 14° WNW 17:37:51 63° SW 17:44:58 10° SE
Cosmos 1437 Rocket 4.4 17:41:31 19° WNW 17:41:36 19° WNW 17:44:21 10° NNW
UNK 4.1 17:37:07 10° SSE 17:41:40 64° ENE 17:46:13 10° N
Delta 2 Rocket 3.1 17:39:49 29° W 17:41:44 76° S 17:46:03 10° ESE
Iridium 4 Rocket 3.7 17:42:41 10° N 17:47:12 62° E 17:52:06 10° SSE
USA 81 4.1 17:42:07 10° N 17:47:25 80° E 17:52:39 10° S
Cosmos 1844 4.4 17:44:47 25° WSW 17:47:34 42° WNW 17:53:03 10° N
IRAS Rocket 4.2 17:42:58 10° NNE 17:48:27 79° WNW 17:52:07 22° SSW
Cosmos 1892 Rocket 3.8 17:48:14 31° SW 17:50:00 50° W 17:54:18 10° N
ATLAS 5 CENTAUR R/B 1.8 17:49:44 24° SSE 17:51:09 38° ESE 17:54:17 10° NE
Resurs 1-4 Rocket 3.7 17:47:49 10° NNW 17:51:37 20° WNW 17:53:43 16° W
Cosmos 2058 Rocket 3.3 17:49:21 10° N 17:53:45 69° E 17:58:06 10° SSE
SAR-Lupe-1 4.2 17:51:50 10° N 17:55:20 55° WNW 17:56:47 31° SW
ALOS 2.9 17:56:29 10° N 18:00:47 40° WNW 18:03:11 22° SW
Alouette 2 Rocket 4.2 18:01:54 22° SW 18:04:40 41° W 18:08:25 10° N
Timation 2 Rocket 4.4 18:08:45 18° SW 18:13:39 53° WNW 18:19:56 10° NNE
Cosmos 724 4.4 18:08:20 10° NNW 18:14:10 83° ENE 18:20:03 10° SSE
Cosmos 1271 Rocket 4.1 18:11:32 10° SSE 18:14:46 33° E 18:18:02 10° NNE
NOAA 11 4.2 18:09:47 10° N 18:15:17 79° WNW 18:20:38 10° SSW
Cosmos 2298 Rocket 4.1 18:11:43 16° SSW 18:16:01 71° WNW 18:21:21 10° NNE
Cosmos 1626 Rocket 3.5 18:12:16 11° S 18:16:31 86° W 18:20:57 10° N
Cosmos 1844 Rocket 4.3 18:14:14 12° W 18:17:41 20° WNW 18:21:43 10° N
SWAS 4.4 18:14:43 17° SSW 18:17:49 76° WNW 18:22:02 10° NNE
METEOR-M 4.2 18:14:40 10° N 18:19:58 64° WNW 18:24:58 11° SSW
NOSS 2-2 (E) 2.8 18:19:52 17° SSW 18:22:36 87° ESE 18:25:45 10° NNE
CZ-4 R/B 4.1 18:21:10 10° N 18:26:00 59° WNW 18:30:50 10° SSW
H-2A R/B 3.1 18:31:52 10° NNE 18:36:56 46° E 18:41:51 10° S
Cosmos 1812 4.0 18:34:34 10° NW 18:37:16 20° W 18:39:42 11° SW
Cosmos 2278 Rocket 3.1 18:35:13 10° S 18:40:37 48° ESE 18:46:03 10° NNE
NOSS 2-3 (D) 3.2 18:38:16 11° SW 18:41:44 63° WNW 18:45:30 10° NNE
Cosmos 1607 4.2 18:35:48 10° NW 18:41:51 47° WSW 18:47:45 10° S
YAOGAN 6 2.7 18:39:35 10° N 18:42:37 43° WNW 18:45:38 10° SSW
IRS-1D 3.5 18:37:43 10° N 18:42:51 72° WNW 18:47:51 10° SSW
SEDSat Delta rocket 3.2 18:40:43 10° WSW 18:44:35 45° S 18:48:30 10° ESE
Okean 1-7 Rocket 3.6 18:42:33 10° SSW 18:47:01 66° W 18:51:29 10° N
Meteor 2-2 Rocket 4.2 18:41:36 10° N 18:47:15 87° W 18:52:53 10° S
Cosmos 1782 2.7 18:43:55 10° NNW 18:47:45 68° W 18:51:32 10° S
Cosmos 1515 3.4 18:46:07 10° N 18:49:36 82° W 18:53:03 10° S
Cosmos-2242 3.0 18:46:31 10° NNW 18:50:47 62° W 18:54:59 10° S
Cosmos 1238 Rocket 3.8 18:50:50 10° NW 18:53:06 18° W 18:55:15 10° SW
Envisat 4.1 18:49:59 10° NNW 18:54:13 27° WNW 18:58:25 10° SW
Cosmos 1378 2.8 18:54:09 10° N 18:57:26 87° E 19:00:40 10° S
CZ-2C R/B 3.1 18:55:57 10° N 19:00:02 33° WNW 19:04:08 10° SW
Cosmos 2346 Rocket 4.4 18:54:43 10° N 19:00:44 72° W 19:06:45 10° S
